Tracking 30261 objects as of 18-Feb-2025
HD Live streaming from Space Station
objects crossing your sky now

FREGAT R/B

Track FREGAT R/B now!


NORAD ID: 54032
Int'l Code: 2022-130B
Perigee: 19,235.9 km
Apogee: 19,368.9 km
Inclination: 64.5 °
Period: 682.3 minutes
Semi major axis: 25673 km
RCS: Unknown
Launch date: October 10, 2022
Source: Commonwealth of Independent States (former USSR) (CIS)
Launch site: PLESETSK MISSILE AND SPACE COMPLEX (PKMTR)

Note: This is a ROCKET BODY
Your satellite tracking list
Your tracking list is empty




NASA's NSSDC Master Catalog

Two Line Element Set (TLE):
1 54032U 22130B   25048.13839933 -.00000077  00000-0  00000-0 0  9995
2 54032  64.5379 332.2300 0025886 176.8255 183.2216  2.11046386 18155
Source of the keplerian elements: AFSPC